sat.trackr.live / text

‹ back to catalog

TIANQI-22

NORAD 57793 · 2023-135B

PAYLOAD ACTIVE UNKNOWN

§ Identity

Operator
Country
PRC
Launch date
2023-09-05
Launch site
SEAL
Launch vehicle
Mass (kg)
RCS (m²)

External: N2YO · Heavens-Above · Gunter

§ Orbital elements

Epoch: 2026-05-25T03:38:17.814912Z

Period
101.19 min
Inclination
49.9685°
Eccentricity
0.0013730
Mean motion
14.23107586 rev/d
Perigee alt
805.0 km
Apogee alt
824.7 km
Semi-major
7,193.0 km
B*
8.7234e-5
RAAN
249.4560°
Arg perigee
180.7863°
Mean anomaly
179.3029°
Rev number
14,134

§ Raw data

TIANQI-221 57793U 23135B   26145.15159508  .00000039  00000+0  87234-4 0  99962 57793  49.9685 249.4560 0013730 180.7863 179.3029 14.23107586141342

JSON: /api/v1/satellites/57793 · /tle

For live sub-satellite position, see the globe view (requires WebGL).

§ Visibility from observer

Set your observer location to see the next 7 days of passes ≥ 10°. The values pass through the URL so the page stays shareable.

No JS? Fill the form by hand. The geolocation button needs JavaScript.

§ Radio — SatNOGS DB

ModeDescriptionDownlinkUplink
LoRa LoRa 400.450 MHz

1 transmitter · refreshed weekly from db.satnogs.org